Location: Long Geng
(2.6167°N, 114.1333°E)
Time: 23:44:37
(UTC+00:00)

Cosmos 1844 Rocket - Pass Details

Date: 14 May 2021
Orbit: 823 x 846 km, 71.0° (Epoch: 19 June)

Event Time Altitude Azimuth Distance (km) Brightness Sun altitude
Rises 21:45:24 0° 354° (N) 3,384 6.0 -7.3°
Reaches altitude 10° 21:47:54 10° 359° (N) 2,453 5.4 -6.7°
Maximum altitude 21:53:22 52° 75° (ENE) 1,042 3.8 -5.4°
Drops below altitude 10° 21:58:51 10° 150° (SSE) 2,463 5.3 -4.1°
Sets 22:01:21 0° 155° (SSE) 3,399 5.9 -3.5°
